Stanton, MN

9:09 PM CST on November 23, 2017 (GMT -0600)
Stanton

Weather History for KSYN - July, 2013

Change the Weather History Date:

Tuesday, July 16, 2013

  Actual Average (KLVN) Record (KLVN)
Temperature  
Mean Temperature 81 °F -  
Max Temperature 90 °F 85 °F 96 °F (1988)
Min Temperature 73 °F 61 °F 48 °F (1973)
Cooling Degree Days 16    
Growing Degree Days 31 (Base 50)    
Moisture  
Dew Point 70 °F    
Average Humidity 70    
Maximum Humidity 88    
Minimum Humidity 48    
Precipitation  
Precipitation 0.00 in - - ()
Sea Level Pressure  
Sea Level Pressure 30.20 in    
Wind  
Wind Speed 5 mph (SW)    
Max Wind Speed 12 mph    
Max Gust Speed -    
Visibility 10 miles    
Events      
Averages and records for this station are not official NWS values.
T = Trace of Precipitation, MM = Missing Value Source: NWS Daily Summary

Daily Weather History Graph

Daily Weather History Graph

Search for Another Location

Airport or City:

Trip Planner

Search our weather history database for the weather conditions in past years. The results will help you decide how hot, cold, wet, or windy it might be!

Date:

Astronomy

Jul. 16, 2013 Rise Set
Actual Time 5:42 AM CDT 8:53 PM CDT
Civil Twilight 5:07 AM CDT 9:28 PM CDT
Nautical Twilight 4:21 AM CDT 10:13 PM CDT
Astronomical Twilight 3:26 AM CDT 11:08 PM CDT
Moon 2:29 PM CDT (7/16) 12:19 AM CDT (7/16)
Length of Visible Light 16h 20m
Length of Day
15h 10m
First Quarter, 56% of the Moon is Illuminated
Jul 16
First Quarter
Jul 22
Full
Jul 29
Last Quarter
Aug 6
New
Aug 14
First Quarter

Hourly Weather History & Observations

Time (CDT) Temp. Heat Index Dew Point Humidity Pressure Visibility Wind Dir Wind Speed Gust Speed Precip Events Conditions
12:13 AM 76.1 °F - 69.3 °F 79% 30.18 in 10.0 mi SSE 5.8 mph - N/A   Clear
12:33 AM 75.6 °F - 69.1 °F 80% 30.19 in 10.0 mi Calm Calm - N/A   Clear
12:52 AM 74.3 °F - 69.3 °F 84% 30.19 in 10.0 mi Calm Calm - N/A   Clear
1:13 AM 73.6 °F - 69.4 °F 87% 30.19 in 10.0 mi Calm Calm - N/A   Scattered Clouds
1:33 AM 73.9 °F - 69.6 °F 86% 30.19 in 10.0 mi SSW 3.5 mph - N/A   Mostly Cloudy
1:53 AM 73.8 °F - 69.8 °F 87% 30.19 in 7.0 mi Calm Calm - N/A   Overcast
2:13 AM 74.1 °F - 70.0 °F 87% 30.19 in 7.0 mi SSW 3.5 mph - N/A   Overcast
2:32 AM 75.2 °F - 70.0 °F 84% 30.18 in 10.0 mi South 3.5 mph - N/A   Overcast
2:53 AM 74.3 °F - 69.8 °F 86% 30.18 in 10.0 mi SW 4.6 mph - N/A   Mostly Cloudy
3:13 AM 74.8 °F - 70.0 °F 85% 30.18 in 10.0 mi SSW 3.5 mph - N/A   Scattered Clouds
3:33 AM 75.2 °F - 69.8 °F 83% 30.18 in 10.0 mi South 4.6 mph - N/A   Scattered Clouds
3:53 AM 75.0 °F - 69.8 °F 84% 30.18 in 10.0 mi South 4.6 mph - N/A   Scattered Clouds
4:12 AM 74.8 °F - 69.8 °F 84% 30.18 in 10.0 mi South 4.6 mph - N/A   Scattered Clouds
4:33 AM 74.8 °F - 69.8 °F 84% 30.18 in 10.0 mi South 3.5 mph - N/A   Clear
4:53 AM 75.2 °F - 70.0 °F 84% 30.18 in 10.0 mi South 5.8 mph - N/A   Clear
5:12 AM 74.8 °F - 70.2 °F 85% 30.18 in 10.0 mi South 5.8 mph - N/A   Clear
5:33 AM 74.7 °F - 70.0 °F 85% 30.19 in 10.0 mi South 5.8 mph - N/A   Clear
5:53 AM 74.5 °F - 70.0 °F 86% 30.19 in 7.0 mi South 5.8 mph - N/A   Clear
6:12 AM 74.8 °F - 70.2 °F 85% 30.19 in 7.0 mi South 5.8 mph - N/A   Scattered Clouds
6:33 AM 74.8 °F - 70.2 °F 85% 30.20 in 7.0 mi South 5.8 mph - N/A   Scattered Clouds
6:53 AM 75.6 °F - 70.3 °F 84% 30.20 in 10.0 mi South 5.8 mph - N/A   Clear
7:12 AM 76.1 °F - 70.7 °F 83% 30.20 in 10.0 mi South 4.6 mph - N/A   Clear
7:33 AM 77.0 °F - 70.7 °F 81% 30.21 in 10.0 mi South 8.1 mph - N/A   Clear
7:53 AM 77.9 °F - 71.2 °F 80% 30.21 in 10.0 mi South 5.8 mph - N/A   Clear
8:12 AM 78.8 °F - 70.9 °F 77% 30.21 in 10.0 mi South 6.9 mph - N/A   Clear
8:33 AM 80.1 °F 83.7 °F 71.6 °F 75% 30.22 in 10.0 mi SSW 4.6 mph - N/A   Clear
8:53 AM 81.3 °F 85.6 °F 71.4 °F 72% 30.22 in 10.0 mi SW 8.1 mph - N/A   Clear
9:12 AM 82.4 °F 86.7 °F 70.9 °F 68% 30.23 in 10.0 mi SW 9.2 mph - N/A   Clear
9:33 AM 82.9 °F 87.7 °F 71.2 °F 68% 30.22 in 10.0 mi SW 8.1 mph - N/A   Clear
9:53 AM 83.3 °F 88.2 °F 71.2 °F 67% 30.22 in 10.0 mi SW 8.1 mph - N/A   Clear
10:13 AM 83.8 °F 88.6 °F 71.1 °F 65% 30.22 in 10.0 mi SW 6.9 mph - N/A   Clear
10:33 AM 84.4 °F 89.7 °F 71.4 °F 65% 30.22 in 10.0 mi SW 6.9 mph - N/A   Clear
10:53 AM 85.1 °F 90.8 °F 71.6 °F 64% 30.22 in 10.0 mi SW 4.6 mph - N/A   Scattered Clouds
11:13 AM 85.3 °F 90.8 °F 71.4 °F 63% 30.22 in 10.0 mi SW 6.9 mph - N/A   Scattered Clouds
11:33 AM 85.1 °F 90.4 °F 71.1 °F 63% 30.22 in 10.0 mi WSW 8.1 mph - N/A   Mostly Cloudy
11:52 AM 86.4 °F 91.4 °F 70.5 °F 59% 30.22 in 10.0 mi SW 8.1 mph - N/A   Scattered Clouds
12:13 PM 86.9 °F 92.1 °F 70.5 °F 58% 30.22 in 10.0 mi WSW 8.1 mph - N/A   Scattered Clouds
12:33 PM 86.7 °F 91.0 °F 69.4 °F 56% 30.22 in 10.0 mi WSW 6.9 mph - N/A   Scattered Clouds
12:52 PM 87.1 °F 90.2 °F 67.5 °F 52% 30.22 in 10.0 mi WSW 6.9 mph - N/A   Scattered Clouds
1:13 PM 88.0 °F 91.8 °F 68.5 °F 52% 30.22 in 10.0 mi SW 9.2 mph - N/A   Clear
1:33 PM 88.2 °F 91.3 °F 67.3 °F 50% 30.22 in 10.0 mi SW 9.2 mph - N/A   Clear
1:52 PM 88.7 °F 92.2 °F 67.6 °F 50% 30.22 in 10.0 mi SW 9.2 mph - N/A   Clear
2:13 PM 88.7 °F 92.6 °F 68.2 °F 51% 30.21 in 10.0 mi SW 11.5 mph - N/A   Clear
2:32 PM 88.9 °F 93.0 °F 68.7 °F 51% 30.21 in 10.0 mi WSW 8.1 mph - N/A   Scattered Clouds
2:53 PM 89.8 °F 94.6 °F 69.4 °F 51% 30.21 in 10.0 mi SW 9.2 mph - N/A   Clear
3:13 PM 89.6 °F 93.0 °F 67.6 °F 48% 30.20 in 10.0 mi WSW 6.9 mph - N/A   Clear
3:33 PM 88.7 °F 92.2 °F 68.0 °F 50% 30.20 in 10.0 mi SW 6.9 mph - N/A   Scattered Clouds
3:53 PM 89.6 °F 93.0 °F 67.8 °F 48% 30.20 in 10.0 mi WSW 6.9 mph - N/A   Scattered Clouds
4:13 PM 89.8 °F 93.8 °F 68.0 °F 49% 30.20 in 10.0 mi SW 6.9 mph - N/A   Clear
4:33 PM 89.6 °F 94.3 °F 69.3 °F 51% 30.20 in 10.0 mi SSW 5.8 mph - N/A   Scattered Clouds
4:53 PM 89.6 °F 94.7 °F 69.6 °F 52% 30.20 in 10.0 mi South 4.6 mph - N/A   Scattered Clouds
5:12 PM 88.9 °F 93.4 °F 69.1 °F 52% 30.20 in 10.0 mi SSW 4.6 mph - N/A   Scattered Clouds
5:18 PM 89.4 °F 94.4 °F 69.4 °F 52% 30.19 in 10.0 mi SW 6.9 mph - N/A   Scattered Clouds
5:45 PM 89.6 °F 94.7 °F 69.8 °F 52% 30.19 in 10.0 mi SW 6.9 mph - N/A   Clear
6:05 PM 89.6 °F 94.7 °F 69.8 °F 52% 30.18 in 10.0 mi SW 5.8 mph - N/A   Clear
6:25 PM 89.6 °F 94.7 °F 69.8 °F 52% 30.18 in 10.0 mi WSW 5.8 mph - N/A   Clear
6:45 PM 87.8 °F 92.6 °F 69.8 °F 55% 30.18 in 10.0 mi WSW 4.6 mph - N/A   Clear
7:05 PM 87.8 °F 92.6 °F 69.8 °F 55% 30.18 in 10.0 mi West 3.5 mph - N/A   Clear
7:25 PM 87.8 °F 93.8 °F 71.6 °F 58% 30.18 in 10.0 mi WSW 3.5 mph - N/A   Clear
7:45 PM 86.0 °F 91.8 °F 71.6 °F 62% 30.18 in 10.0 mi SW 3.5 mph - N/A   Clear
8:05 PM 86.0 °F 93.4 °F 73.4 °F 66% 30.18 in 10.0 mi Calm Calm - N/A   Clear
8:25 PM 84.2 °F 90.9 °F 73.4 °F 70% 30.19 in 10.0 mi Calm Calm - N/A   Clear
8:45 PM 82.4 °F 89.5 °F 75.2 °F 79% 30.18 in 10.0 mi Calm Calm - N/A   Clear
9:01 PM 81.3 °F 86.5 °F 73.6 °F 77% 30.19 in 10.0 mi Calm Calm - N/A   Clear
9:13 PM 80.4 °F 84.8 °F 73.0 °F 78% 30.19 in 10.0 mi Calm Calm - N/A   Clear
9:32 PM 78.4 °F - 73.6 °F 85% 30.20 in 10.0 mi Calm Calm - N/A   Clear
9:45 PM 78.4 °F - 73.2 °F 84% 30.21 in 10.0 mi Calm Calm - N/A   Clear
10:13 PM 77.0 °F - 72.7 °F 86% 30.21 in 10.0 mi Calm Calm - N/A   Clear
10:33 PM 77.5 °F - 72.5 °F 84% 30.21 in 10.0 mi South 3.5 mph - N/A   Clear
10:53 PM 76.3 °F - 72.3 °F 87% 30.22 in 10.0 mi SW 3.5 mph - N/A   Clear
11:13 PM 76.8 °F - 72.1 °F 85% 30.22 in 10.0 mi South 3.5 mph - N/A   Clear
11:33 PM 75.9 °F - 71.6 °F 86% 30.22 in 10.0 mi Calm Calm - N/A   Clear
11:53 PM 74.5 °F - 70.7 °F 88% 30.22 in 10.0 mi Calm Calm - N/A   Clear